Cadillac, MI

1:08 AM EDT on June 23, 2017 (GMT -0400)
Wexford County

Weather History for KCAD - October, 2013

Change the Weather History Date:

Friday, October 4, 2013

  Actual Average Record
Temperature  
Mean Temperature 65 °F -  
Max Temperature 71 °F 61 °F 82 °F (2005)
Min Temperature 59 °F 38 °F 22 °F (1948)
Growing Degree Days 15 (Base 50)    
Moisture  
Dew Point 61 °F    
Average Humidity 90    
Maximum Humidity 93    
Minimum Humidity 77    
Precipitation  
Precipitation 0.00 in - - ()
Sea Level Pressure  
Sea Level Pressure 29.99 in    
Wind  
Wind Speed 3 mph (East)    
Max Wind Speed 15 mph    
Max Gust Speed 16 mph    
Visibility 6 miles    
Events Fog , Rain    
Averages and records for this station are not official NWS values.
T = Trace of Precipitation, MM = Missing Value Source: NWS Daily Summary

Daily Weather History Graph

Daily Weather History Graph

Search for Another Location

Airport or City:

Trip Planner

Search our weather history database for the weather conditions in past years. The results will help you decide how hot, cold, wet, or windy it might be!

Date:

Astronomy

Oct. 04, 2013 Rise Set
Actual Time 7:43 AM EDT 7:16 PM EDT
Civil Twilight 7:14 AM EDT 7:45 PM EDT
Nautical Twilight 6:40 AM EDT 8:18 PM EDT
Astronomical Twilight 6:06 AM EDT 8:52 PM EDT
Moon 7:18 AM EDT (10/4) 6:57 PM EDT (10/4)
Length of Visible Light 12h 30m
Length of Day
11h 33m
Waning Crescent, 0% of the Moon is Illuminated
Oct 4
Waning Crescent
Oct 4
New
Oct 11
First Quarter
Oct 18
Full
Oct 26
Last Quarter

Hourly Weather History & Observations

Time (EDT) Temp. Dew Point Humidity Pressure Visibility Wind Dir Wind Speed Gust Speed Precip Events Conditions
12:35 AM 63.1 °F 60.3 °F 90% 29.93 in 7.0 mi Calm Calm - N/A   Mostly Cloudy
12:54 AM 64.0 °F 61.2 °F 90% 29.93 in 7.0 mi Calm Calm - N/A   Mostly Cloudy
1:15 AM 64.0 °F 61.0 °F 90% 29.92 in 7.0 mi Calm Calm - N/A   Overcast
1:35 AM 64.0 °F 61.0 °F 90% 29.91 in 10.0 mi Calm Calm - N/A   Overcast
1:54 AM 64.0 °F 61.2 °F 90% 29.91 in 7.0 mi Calm Calm - N/A   Overcast
2:15 AM 64.0 °F 61.2 °F 90% 29.91 in 7.0 mi NE 3.5 mph - N/A   Overcast
2:35 AM 64.0 °F 61.2 °F 90% 29.91 in 3.0 mi East 3.5 mph - N/A Rain Heavy Rain
2:54 AM 64.0 °F 61.7 °F 92% 29.92 in 2.0 mi NW 6.9 mph - N/A Rain Rain
3:15 AM 64.8 °F 62.2 °F 92% 29.91 in 3.0 mi South 3.5 mph - N/A Rain Light Rain
3:35 AM 64.8 °F 62.1 °F 91% 29.91 in 5.0 mi Calm Calm - N/A Rain Light Rain
3:54 AM 65.3 °F 62.6 °F 91% 29.91 in 10.0 mi SW 5.8 mph - N/A   Overcast
4:15 AM 65.3 °F 62.6 °F 91% 29.92 in 10.0 mi WSW 8.1 mph - N/A   Overcast
4:35 AM 65.5 °F 62.6 °F 90% 29.93 in 10.0 mi WSW 9.2 mph - N/A   Overcast
4:54 AM 65.3 °F 62.2 °F 90% 29.93 in 10.0 mi West 5.8 mph - N/A   Overcast
5:15 AM 64.4 °F 61.5 °F 90% 29.92 in 10.0 mi WNW 4.6 mph - N/A   Scattered Clouds
5:35 AM 62.8 °F 59.9 °F 90% 29.93 in 4.0 mi Calm Calm - N/A   Clear
5:54 AM 61.9 °F 59.4 °F 91% 29.93 in 1.8 mi Calm Calm - N/A   Mist
6:15 AM 62.1 °F 59.4 °F 91% 29.93 in 0.8 mi Calm Calm - N/A   Mist
6:35 AM 59.2 °F 56.7 °F 91% 29.94 in 0.5 mi Calm Calm - N/A Fog Fog
6:54 AM 59.4 °F 57.0 °F 92% 29.95 in 0.2 mi Calm Calm - N/A Fog Fog
7:15 AM 62.2 °F 59.9 °F 92% 29.96 in 5.0 mi West 3.5 mph - N/A   Overcast
7:35 AM 62.8 °F 60.3 °F 91% 29.97 in 10.0 mi Calm Calm - N/A   Overcast
7:55 AM 62.8 °F 60.1 °F 91% 29.97 in 10.0 mi Calm Calm - N/A   Overcast
8:15 AM 62.8 °F 60.3 °F 91% 29.97 in 10.0 mi SSW 3.5 mph - N/A   Overcast
8:35 AM 62.8 °F 60.1 °F 91% 29.98 in 10.0 mi Calm Calm - N/A Rain Rain
8:54 AM 62.8 °F 60.1 °F 91% 29.97 in 10.0 mi Calm Calm - N/A   Overcast
9:15 AM 63.5 °F 60.8 °F 91% 29.98 in 7.0 mi SE 3.5 mph - N/A   Overcast
9:35 AM 64.0 °F 61.3 °F 91% 29.99 in 10.0 mi Calm Calm - N/A   Overcast
9:54 AM 64.0 °F 61.2 °F 90% 29.98 in 10.0 mi Calm Calm - N/A   Overcast
10:15 AM 64.0 °F 61.2 °F 90% 29.99 in 10.0 mi South 3.5 mph - N/A   Overcast
10:35 AM 64.0 °F 61.2 °F 90% 30.00 in 10.0 mi Calm Calm - N/A   Overcast
10:55 AM 64.8 °F 61.7 °F 90% 29.99 in 10.0 mi South 3.5 mph - N/A   Overcast
11:15 AM 64.8 °F 61.7 °F 90% 29.99 in 10.0 mi Calm Calm - N/A   Overcast
11:34 AM 65.8 °F 62.4 °F 89% 29.99 in 10.0 mi South 3.5 mph - N/A   Overcast
11:55 AM 66.2 °F 62.6 °F 88% 29.99 in 10.0 mi Calm Calm - N/A   Overcast
12:15 PM 66.6 °F 62.8 °F 88% 30.00 in 10.0 mi Calm Calm - N/A   Overcast
12:34 PM 66.6 °F 62.8 °F 88% 30.00 in 10.0 mi Calm Calm - N/A   Overcast
12:55 PM 69.1 °F 64.6 °F 86% 30.00 in 10.0 mi Calm Calm - N/A   Overcast
1:15 PM 69.1 °F 64.4 °F 85% 30.00 in 10.0 mi Calm Calm - N/A   Overcast
1:34 PM 70.5 °F 65.5 °F 84% 30.00 in 10.0 mi Calm Calm - N/A   Overcast
1:55 PM 71.6 °F 65.7 °F 81% 29.99 in 10.0 mi Calm Calm - N/A   Overcast
2:14 PM 71.6 °F 64.0 °F 77% 29.98 in 10.0 mi Calm Calm - N/A   Overcast
2:35 PM 71.6 °F 66.0 °F 82% 29.98 in 10.0 mi ENE 8.1 mph - N/A   Overcast
2:55 PM 69.1 °F 64.6 °F 86% 29.96 in 10.0 mi East 15.0 mph - N/A   Overcast
3:14 PM 66.6 °F 62.8 °F 88% 30.00 in 10.0 mi ENE 5.8 mph - N/A   Overcast
3:35 PM 64.9 °F 61.7 °F 89% 30.01 in 10.0 mi ENE 4.6 mph - N/A   Overcast
3:54 PM 64.9 °F 61.3 °F 88% 30.02 in 10.0 mi NE 3.5 mph - N/A   Overcast
4:15 PM 64.6 °F 61.2 °F 89% 30.02 in 10.0 mi ENE 3.5 mph - N/A   Overcast
4:35 PM 64.0 °F 60.8 °F 89% 30.02 in 7.0 mi ENE 5.8 mph - N/A   Overcast
4:54 PM 64.0 °F 60.8 °F 89% 30.03 in 7.0 mi ENE 3.5 mph - N/A   Overcast
5:15 PM 64.0 °F 60.8 °F 89% 30.03 in 10.0 mi ENE 6.9 mph - N/A   Overcast
5:34 PM 63.1 °F 60.3 °F 90% 30.03 in 5.0 mi ENE 6.9 mph - N/A   Overcast
5:55 PM 62.8 °F 59.9 °F 90% 30.03 in 4.0 mi ENE 5.8 mph - N/A   Overcast
6:15 PM 62.8 °F 59.9 °F 90% 30.03 in 4.0 mi East 5.8 mph - N/A   Overcast
6:34 PM 62.8 °F 60.1 °F 91% 30.04 in 3.0 mi ENE 5.8 mph - N/A Rain Light Rain
6:55 PM 62.1 °F 59.5 °F 91% 30.04 in 1.0 mi ENE 6.9 mph - N/A   Light Drizzle
7:15 PM 61.7 °F 59.0 °F 91% 30.03 in 0.5 mi East 10.4 mph - N/A Fog Fog
7:34 PM 61.7 °F 59.2 °F 91% 30.03 in 0.5 mi ENE 10.4 mph - N/A Fog Fog
7:55 PM 61.7 °F 59.2 °F 91% 30.04 in 0.5 mi East 11.5 mph 16.1 mph N/A Fog Fog
8:15 PM 59.5 °F 57.2 °F 92% 30.04 in 1.0 mi East 10.4 mph - N/A   Overcast
8:34 PM 59.0 °F 56.7 °F 92% 30.03 in 1.0 mi East 9.2 mph - N/A   Light Drizzle
8:55 PM 59.0 °F 56.7 °F 92% 30.04 in 0.5 mi East 8.1 mph - N/A Fog Fog
9:15 PM 59.0 °F 56.8 °F 93% 30.04 in 0.5 mi East 6.9 mph - N/A Fog Fog
9:34 PM 59.0 °F 56.8 °F 93% 30.05 in 0.8 mi ENE 9.2 mph - N/A   Overcast
9:55 PM 59.0 °F 56.8 °F 93% 30.05 in 1.2 mi East 6.9 mph - N/A   Overcast
10:15 PM 59.0 °F 56.8 °F 93% 30.05 in 1.0 mi East 10.4 mph - N/A   Overcast
10:34 PM 59.0 °F 56.8 °F 93% 30.07 in 0.8 mi East 8.1 mph - N/A   Overcast
10:55 PM 59.0 °F 56.8 °F 93% 30.07 in 0.8 mi East 9.2 mph - N/A   Overcast
11:15 PM 59.0 °F 56.8 °F 93% 30.07 in 0.5 mi East 8.1 mph - N/A Fog Fog
11:34 PM 59.0 °F 56.8 °F 93% 30.06 in 0.5 mi East 6.9 mph - N/A Fog Fog
11:55 PM 59.0 °F 56.8 °F 93% 30.06 in 0.2 mi East 8.1 mph - N/A Fog Fog